Location: Mahannah Oil Field
(37.4664°N, 96.6003°W)
Time: 01:43:17
(UTC+00:00)

deb Explorer IX - Pass Details

Date: 29 January 2021
Orbit: 537 x 1102 km, 38.8° (Epoch: 25 February)

Event Time Altitude Azimuth Distance (km) Brightness Sun altitude
Rises 22:50:18 0° 258° (WSW) 3,894 ? 9.4°
Reaches altitude 10° 22:53:09 10° 258° (WSW) 2,908 ? 8.9°
Maximum altitude 23:00:19 88° 348° (NNW) 1,008 ? 7.6°
Drops below altitude 10° 23:06:41 10° 79° (E) 2,593 ? 6.5°
Sets 23:09:06 0° 80° (E) 3,451 ? 6.1°
